EW3013 Weather Reports


time (UTC)temp
C
wind
direction
speed
KPH
gust
KPH
rain 1hr
cm
rain 24hr
cm
rain mn
cm
humidity
%
barometer
mb
20260510115142 11 282 0.0 3.2 0.00 0.00 0.00 97 1011.1
20260510114121 10 108 3.2 8.0 0.00 0.00 0.00 98 1010.9
20260510113121 10 58 3.2 11.3 0.00 0.00 0.00 98 1010.8
20260510112121 10 110 1.6 4.8 0.00 0.00 0.00 97 1010.9
20260510111121 10 20 1.6 4.8 0.00 0.00 0.00 97 1010.8
20260510110121 10 43 3.2 6.4 0.00 0.00 0.00 98 1010.6
20260510105121 10 318 1.6 6.4 0.00 0.00 0.00 98 1010.7
20260510104121 9 339 1.6 4.8 0.00 0.00 0.00 98 1010.6
20260510103121 9 351 3.2 6.4 0.00 0.00 0.00 98 1010.7
20260510102121 9 20 1.6 3.2 0.00 0.00 0.00 98 1010.5
20260510101142 9 21 3.2 4.8 0.00 0.00 0.00 98 1010.2
20260510100121 9 234 3.2 4.8 0.00 0.00 0.00 98 1010.3
20260510095121 9 92 3.2 4.8 0.00 0.00 0.00 98 1010.0
20260510094121 9 72 1.6 6.4 0.00 0.00 0.00 98 1010.0
20260510093121 10 107 4.8 9.7 0.00 0.00 0.00 98 1009.9
20260510092121 10 38 6.4 11.3 0.00 0.00 0.00 98 1010.0
20260510091121 10 25 3.2 6.4 0.00 0.00 0.00 98 1009.8
20260510090121 10 68 1.6 6.4 0.00 0.00 0.00 98 1009.6
20260510085122 10 84 1.6 4.8 0.00 0.00 0.00 97 1009.8
20260510084143 10 139 3.2 8.0 0.00 0.00 0.00 98 1009.9
20260510083143 10 160 3.2 6.4 0.00 0.00 0.00 97 1009.8
20260510082122 10 198 4.8 8.0 0.00 0.00 0.00 97 1009.8
20260510081122 9 314 3.2 6.4 0.00 0.00 0.00 96 1009.5
20260510080122 8 193 3.2 9.7 0.00 0.00 0.00 96 1010.3
20260510075122 8 92 0.0 1.6 0.00 0.00 0.00 97 1009.4
20260510074121 8 141 0.0 1.6 0.00 0.00 0.00 97 1009.4
20260510073143 8 154 0.0 3.2 0.00 0.00 0.00 97 1009.4
20260510072121 8 151 1.6 3.2 0.00 0.00 0.00 97 1009.2
20260510071122 8 166 4.8 8.0 0.00 0.00 0.00 97 1009.2
20260510070122 8 18 0.0 1.6 0.00 0.00 0.00 97 1009.3
20260510065121 8 61 0.0 0.0 0.00 0.00 0.00 97 1009.1
20260510064122 8 88 1.6 3.2 0.00 0.00 0.00 97 1009.1
20260510063122 8 242 0.0 1.6 0.00 0.00 0.00 97 1009.0
20260510062143 8 116 0.0 0.0 0.00 0.00 0.00 97 1008.9
20260510061122 8 308 0.0 0.0 0.00 0.00 0.00 97 1008.9
20260510060122 8 321 0.0 0.0 0.00 0.00 0.00 96 1008.9
20260510055122 8 156 0.0 1.6 0.00 0.00 0.00 96 1009.0
20260510054122 8 128 0.0 0.0 0.00 0.00 0.00 96 1009.2
20260510053143 8 303 0.0 0.0 0.00 0.00 0.00 96 1009.2
20260510052122 9 31 0.0 0.0 0.00 0.00 0.00 96 1009.3
20260510051141 9 31 0.0 0.0 0.00 0.00 0.00 96 1009.2
20260510050121 9 229 0.0 0.0 0.00 0.00 0.00 96 1009.2
20260510045121 9 229 0.0 0.0 0.00 0.00 0.00 96 1009.3
20260510044120 9 49 0.0 0.0 0.00 0.00 0.00 96 1009.4
20260510043121 9 33 0.0 1.6 0.00 0.00 0.00 96 1009.4
20260510042121 9 153 0.0 0.0 0.00 0.00 0.00 96 1009.4
20260510041120 10 185 0.0 0.0 0.00 0.00 0.00 96 1009.4
20260510040120 10 36 0.0 1.6 0.00 0.00 0.00 96 1009.5
20260510035121 10 146 0.0 1.6 0.00 0.00 0.51 96 1009.5
20260510034142 10 61 0.0 0.0 0.00 0.00 0.51 96 1009.5
20260510033121 10 140 0.0 1.6 0.00 0.00 0.51 95 1009.4
20260510032142 10 153 0.0 0.0 0.00 0.00 0.51 95 1009.4
20260510031121 10 128 0.0 0.0 0.00 0.00 0.51 95 1009.3
20260510030142 10 167 0.0 0.0 0.00 0.00 0.51 95 1009.3
20260510025142 10 159 0.0 1.6 0.00 0.00 0.51 95 1009.2
20260510024122 10 198 0.0 1.6 0.00 0.00 0.46 95 1009.0
20260510023142 10 314 0.0 0.0 0.00 0.00 0.46 95 1009.1
20260510022121 10 141 0.0 0.0 0.00 0.00 0.46 95 1009.1
20260510021120 11 134 0.0 0.0 0.00 0.00 0.46 94 1009.2
20260510020142 10 216 0.0 1.6 0.00 0.00 0.46 94 1009.0
20260510015142 11 128 0.0 1.6 0.00 0.00 0.46 94 1009.0
20260510014121 11 307 0.0 1.6 0.00 0.00 0.46 94 1008.9
20260510013121 11 178 0.0 1.6 0.00 0.00 0.46 93 1008.8
20260510012121 11 43 0.0 0.0 0.00 0.00 0.46 93 1008.7
20260510011143 11 149 0.0 1.6 0.00 0.00 0.46 93 1008.8
20260510010121 12 134 0.0 0.0 0.00 0.00 0.46 92 1008.5
20260510005142 12 355 0.0 1.6 0.00 0.00 0.46 92 1008.4
20260510004121 12 334 0.0 1.6 0.00 0.00 0.46 92 1008.5
20260510003121 12 211 1.6 3.2 0.00 0.00 0.46 92 1008.3
20260510002121 12 118 0.0 3.2 0.00 0.00 0.46 91 1008.1
20260510001121 13 15 0.0 3.2 0.00 0.00 0.46 90 1008.3
20260510000142 13 73 0.0 4.8 0.00 0.00 0.46 89 1008.2
20260509235121 13 207 1.6 4.8 0.00 0.00 0.46 88 1008.1
20260509234121 13 107 1.6 4.8 0.00 0.00 0.46 87 1008.3
20260509233121 14 146 1.6 3.2 0.00 0.00 0.46 86 1008.2
20260509232121 14 103 1.6 4.8 0.00 0.00 0.46 87 1008.1
20260509231122 14 188 1.6 4.8 0.00 0.00 0.46 87 1008.2
20260509230121 14 106 1.6 4.8 0.00 0.00 0.46 87 1008.2
20260509225122 15 82 1.6 3.2 0.00 0.00 0.46 84 1008.0
20260509224121 15 75 1.6 6.4 0.00 0.00 0.46 83 1008.1
20260509223142 15 171 1.6 4.8 0.00 0.00 0.46 85 1008.0
20260509222121 15 204 1.6 4.8 0.00 0.00 0.46 85 1008.2
20260509221121 15 169 3.2 6.4 0.00 0.00 0.46 85 1008.2
20260509220122 15 170 1.6 6.4 0.00 0.00 0.46 86 1008.1
20260509215142 15 75 1.6 4.8 0.00 0.00 0.46 85 1008.0
20260509214122 15 329 1.6 3.2 0.00 0.00 0.46 83 1008.0
20260509213142 15 32 1.6 6.4 0.00 0.00 0.46 85 1008.1
20260509212142 15 174 1.6 6.4 0.00 0.00 0.46 88 1008.2
20260509211121 14 117 1.6 4.8 0.00 0.00 0.46 87 1008.3
20260509210121 14 97 1.6 4.8 0.00 0.00 0.46 87 1008.3
20260509205122 14 95 0.0 4.8 0.00 0.00 0.46 87 1008.3
20260509204121 14 100 3.2 6.4 0.00 0.00 0.46 86 1008.3
20260509203121 14 91 1.6 4.8 0.00 0.00 0.46 85 1008.4
20260509202121 14 93 3.2 8.0 0.00 0.00 0.46 87 1008.4
20260509201121 14 85 1.6 4.8 0.00 0.00 0.46 88 1008.3
20260509200121 13 88 1.6 6.4 0.00 0.00 0.41 86 1008.3
20260509195121 13 70 3.2 9.7 0.00 0.00 0.41 88 1008.3
20260509194142 13 92 4.8 6.4 0.00 0.00 0.41 88 1008.3
20260509193121 13 91 3.2 6.4 0.00 0.00 0.41 86 1008.5
20260509192121 13 155 0.0 3.2 0.00 0.00 0.38 86 1008.9
20260509191121 13 98 1.6 4.8 0.00 0.00 0.36 85 1009.2
20260509190142 13 67 3.2 8.0 0.00 0.00 0.36 86 1009.2
20260509185121 13 138 1.6 3.2 0.00 0.00 0.30 86 1009.4
20260509184121 13 131 1.6 3.2 0.00 0.00 0.30 86 1009.6
20260509183121 13 181 1.6 3.2 0.00 0.00 0.30 84 1009.6
20260509182121 13 260 1.6 4.8 0.00 0.00 0.28 83 1009.7
20260509181122 13 328 1.6 4.8 0.00 0.00 0.28 82 1009.8
20260509180121 13 293 1.6 4.8 0.00 0.00 0.28 81 1009.8
20260509175123 13 286 0.0 4.8 0.00 0.00 0.28 83 1009.9
20260509174121 13 275 1.6 6.4 0.00 0.00 0.28 82 1010.0
20260509173121 13 229 1.6 3.2 0.00 0.00 0.28 83 1010.0
20260509172121 13 322 0.0 3.2 0.00 0.00 0.28 83 1010.0
20260509171142 13 358 0.0 1.6 0.00 0.00 0.28 86 1010.1
20260509170122 13 278 0.0 3.2 0.00 0.00 0.25 84 1009.9
20260509165122 13 358 0.0 3.2 0.00 0.00 0.25 83 1009.8
20260509164122 14 264 0.0 3.2 0.00 0.00 0.23 81 1009.9
20260509163122 14 40 0.0 3.2 0.00 0.00 0.23 80 1009.6
20260509162121 15 105 1.6 4.8 0.00 0.00 0.23 81 1009.5
20260509161122 14 61 0.0 1.6 0.00 0.00 0.23 84 1009.8
20260509160122 14 165 0.0 1.6 0.00 0.00 0.23 85 1010.2
20260509154121 13 339 1.6 3.2 0.00 0.00 0.20 85 1010.4
20260509153122 14 295 1.6 4.8 0.00 0.00 0.18 85 1010.5
20260509152122 14 248 1.6 3.2 0.00 0.00 0.13 84 1010.8
20260509151142 14 268 1.6 4.8 0.00 0.00 0.13 83 1010.6
20260509150122 14 290 1.6 4.8 0.00 0.00 0.10 82 1010.7
20260509145122 14 237 1.6 6.4 0.00 0.00 0.08 80 1010.4
20260509144122 15 245 1.6 4.8 0.00 0.00 0.05 79 1010.6
20260509143122 15 232 1.6 4.8 0.00 0.00 0.03 76 1010.5
20260509142122 15 232 3.2 8.0 0.00 0.00 0.00 74 1010.3
20260509141122 15 222 1.6 6.4 0.00 0.00 0.00 74 1010.2
20260509140122 15 193 1.6 4.8 0.00 0.00 0.00 74 1010.0
20260509135122 15 169 1.6 6.4 0.00 0.00 0.00 75 1009.9
20260509134143 15 237 0.0 3.2 0.00 0.00 0.00 75 1009.9
20260509133122 15 207 1.6 4.8 0.00 0.00 0.00 75 1010.0
20260509132122 14 155 3.2 6.4 0.00 0.00 0.00 76 1009.9
20260509131120 14 282 1.6 6.4 0.00 0.00 0.00 77 1009.8
20260509130120 13 234 1.6 3.2 0.00 0.00 0.00 77 1009.8
20260509125141 13 101 1.6 4.8 0.00 0.00 0.00 78 1009.9
20260509124141 13 104 1.6 4.8 0.00 0.00 0.00 79 1009.9
20260509123121 12 56 3.2 4.8 0.00 0.00 0.00 80 1010.1
20260509122120 12 188 1.6 4.8 0.00 0.00 0.00 81 1010.0
20260509121121 12 21 1.6 4.8 0.00 0.00 0.00 82 1010.1
20260509120121 12 158 1.6 3.2 0.00 0.00 0.00 82 1010.0